Location: Ariel
(45.9570°N, 122.5700°W)
Time: 15:41:44
(UTC-07:00)

Transit 4A - Pass Details

Date: 29 July 2019
Orbit: 863 x 981 km, 66.8° (Epoch: 18 August)

Event Time Altitude Azimuth Distance (km) Brightness Sun altitude
Exits shadow 02:17:57 19° 261° (W) 2,154 9.6 -23.8°
Maximum altitude 02:21:54 36° 316° (NW) 1,504 9.2 -23.6°
Drops below altitude 10° 02:27:47 10° 22° (NNE) 2,737 11.5 -23.3°
Sets 02:30:36 0° 31° (NNE) 3,679 12.4 -23.1°
